User: anonymous   Login
Location: Bowman Observatory
(41.0326°N, 73.6210°W)
Time: 16:33:05
(UTC-04:00)
Language:

Cosmos 2298 Rocket - Orbit

View from above orbital plane
View from above orbital plane
View from above satellite
View from above satellite

Ground track
Ground track

The orbit data is extracted from the following two-line orbital elements,

1 23432U 94083B   17119.96354819 +.00000025 +00000-0 +18584-4 0  9999
2 23432 074.0347 026.1558 0006365 249.0953 194.5878 14.33471871169197
Epoch (UTC): 29 April 2017 23:07:30
Eccentricity: 0.0006365
inclination: 74.0347°
perigee height: 775 km
apogee height: 785 km
right ascension of ascending node: 26.1558°
argument of perigee: 249.0953°
revolutions per day: 14.33471871
mean anomaly at epoch: 194.5878°
orbit number at epoch: 16919

The dashed part of the orbit path shows where the satellite is in the earth's shadow,  

DLR